Location: Isle of Man Observatory
(54.1776°N, 4.6264°W)
Time: 06:09:58
(UTC+02:00)

ACS3 Solar Sail - Pass Details

Date: 29 May 2026
Orbit: 873 x 957 km, 97.2° (Epoch: 10 June)

Event Time Altitude Azimuth Distance (km) Brightness Sun altitude
Rises 03:23:31 0° 12° (NNE) 3,480 6.8 -12.8°
Reaches altitude 10° 03:25:54 10° 11° (NNE) 2,537 5.5 -12.7°
Maximum altitude 03:31:32 77° 287° (WNW) 904 1.6 -12.5°
Enters shadow 03:36:02 17° 203° (SSW) 2,099 2.9 -12.3°
